Regional Weather Roundup
Issued by NWS Nashville, TN

Home | Current Version | Previous Version | Text Only | Print | Product List | Glossary On
Versions: 1 2 3 4 5 6 7 8 9 10 11 12 13 14 15 16 17 18 19 20 21 22 23 24 25 26 27 28 29 30 31 32 33 34 35 36 37 38 39 40 41 42 43 44 45 46 47 48 49 50
000
ASUS44 KOHX 281315
RWROHX
MIDDLE TENNESSEE HOURLY WEATHER ROUNDUP
NATIONAL WEATHER SERVICE NASHVILLE TN
800 AM CDT MON JUL 28 2014

NOTE: "FAIR" INDICATES FEW OR NO CLOUDS BELOW 12,000 FEET WITH
NO SIGNIFICANT WEATHER AND/OR OBSTRUCTIONS TO VISIBILITY.

* THESE REPORTS ARE NOT UNDER NWS QUALITY CONTROL AND MAY NOT
  REPORT WEATHER SUCH AS PRECIPITATION AND FOG.


TNZ005>011-023>034-057-059-062>066-078-080-281400
...NORTHERN MIDDLE TENNESSEE...

CITY           SKY/WX    TMP DP  RH WIND       PRES   REMARKS
CLARKSVILLE    SUNNY     72  58  61 NW12      30.01S
CROSSVILLE     LGT RAIN  68  61  78 W8        30.02R
DICKSON        SUNNY     68  61  77 NW7       30.03R
LEBANON        SUNNY     70  61  73 W7        29.99R
NASHVILLE      SUNNY     73  61  65 NW8       30.01R
WEST NASHVILLE   N/A     72  64  78 W8        30.01R
PORTLAND       SUNNY     68  61  77 NW7       30.00R
SMYRNA         SUNNY     72  64  75 NW9       30.02R
SPARTA         SUNNY     72  66  83 NW5       29.99S
$$
TNZ056-058-060-061-075>077-079-093>097-281400
...SOUTHERN MIDDLE TENNESSEE...

CITY           SKY/WX    TMP DP  RH WIND       PRES   REMARKS
COLUMBIA       SUNNY     72  63  73 CALM      30.01S
FAYETTEVILLE   SUNNY     72  63  73 N7        30.02R
LEWISBURG      SUNNY     72  64  75 NW3       30.01R
MCMINNVILLE    SUNNY     72  66  83 W5        30.01R
MURFREESBORO   SUNNY     71  62  73 NW6       30.00R
SHELBYVILLE    SUNNY     73  63  68 N7        30.02R
TULLAHOMA      SUNNY     70  63  78 N8        30.02S
WINCHESTER     SUNNY     72  64  78 N5        30.01R
$$


...KEY TO REMARKS...
VSB - VISIBILITY IN MILES
WCI - WIND CHILL INDEX
HX  - HEAT INDEX




USA.gov is the U.S. government's official web portal to all federal, state and local government web resources and services.